Weather Roundup
Issued by NWS

Home | Current Version | Previous Version | Graphics & Text | Print | Product List | Glossary Off
Versions: 1 2 3 4 5 6 7 8 9 10 11 12 13 14 15 16 17 18 19 20 21 22 23 24 25 26 27 28 29 30 31 32 33 34 35 36 37 38 39 40 41 42 43 44 45 46 47 48 49 50

545
NZUS93 KARX 220359
HRRWXR

CURRENT HOURLY OBSERVATIONS ACROSS
MUCH OF THE UPPER MISSISSIPPI VALLEY
NATIONAL WEATHER SERVICE LA CROSSE WI
1000 PM CST SAT JAN 21 2017


...SOUTHEAST MINNESOTA...


CITY           SKY/WX    TMP DP  RH WIND       PRES   REMARKS
ROCHESTER      FOG       34  34 100 SW10      29.51S VSB 1/2 WCI  26
ROCHESTER/MAYO CLOUDY    37  37 100 SW7       29.52R VSB 1/2 WCI  31
WINONA         CLOUDY    36  36 100 CALM      29.53S FOG
AUSTIN         CLOUDY    36  36 100 SW3       29.52R FOG
ALBERT LEA     CLOUDY    36  36 100 SW3       29.53R FOG
DODGE CENTER   SNOW      34  34 100 CALM      29.51S VSB 1/2
PRESTON        FOG       35  34  96 SW5       29.53R VSB 1/4 WCI  31
OWATONNA       FOG       36  34  93 SW7       29.52S VSB 1/2 WCI  30
FARIBAULT      NOT AVBL
$$

...ELSEWHERE IN MINNESOTA...


CITY           SKY/WX    TMP DP  RH WIND       PRES   REMARKS
MINNEAPOLIS    DRZL/FOG  37  35  92 CALM      29.53R VSB 1/2
INTNL FALLS    FOG       35  33  92 CALM      29.57R VSB 1/4
DULUTH         DRZL/FOG  34  34 100 NE8       29.51S VSB 1   WCI  27
RED WING       FOG       36  34  93 CALM      29.52S VSB 1/4
REDWOOD FALLS  FOG       35  33  92 CALM      29.53R VSB 1/4
MANKATO        LGT RAIN  35  34  96 CALM      29.53R VSB 3/4
WORTHINGTON    CLOUDY    31  31 100 W10       29.53R FOG     WCI  22
FAIRMONT       CLOUDY    33  31  92 W6        29.54R WCI  28
$$

...SOUTHWEST WISCONSIN...


CITY           SKY/WX    TMP DP  RH WIND       PRES   REMARKS
LA CROSSE      CLOUDY    41  38  89 S7        29.53R
PRAIRIE DU CHI CLOUDY    37  36  96 CALM      29.55R FOG
BOSCOBEL       FOG       40  39  97 CALM      29.56R VSB 3/4
LONE ROCK      NOT AVBL
PLATTEVILLE    CLOUDY    39  39 100 SW6       29.56R VSB 1/2
FORT MC COY    FOG       38  38 100 CALM        N/A  VSB 1
CAMP DOUGLAS   CLOUDY    39  39 100 S5        29.52R FOG
MAUSTON-NEW LI CLOUDY    40  40 100 SW3       29.52R FOG
VIROQUA        CLOUDY    37  37 100 SW5       29.53R VSB 1/4 WCI  33
WIS DELLS      CLOUDY    40  39  99 SW7       29.54R FOG     WCI  35
$$

...ELSEWHERE IN WISCONSIN...


CITY           SKY/WX    TMP DP  RH WIND       PRES   REMARKS
MILWAUKEE      CLOUDY    44  40  85 W9        29.58R
MADISON        CLOUDY    40  39  97 S5        29.57R FOG
GREEN BAY      FOG       38  38 100 SW3       29.54R VSB 1/2
EAU CLAIRE     NOT AVBL
BLACK RVR FLS  FOG       39  39 100 SW3       29.51S VSB 1/4
MEDFORD        FOG       33  33  99 SE3       29.49R VSB 1/4
WAUSAU         FOG       34  34 100 SE3       29.49S VSB 1/4
WIS RAPIDS     FOG       38  38 100 S5        29.53R VSB 1/4 WCI  34
MARSHFIELD     FOG       35  34  96 S3        29.49R VSB 1/4
RICE LAKE      FOG       34  34 100 CALM      29.52R VSB<1/4
$$

...NORTHEAST IOWA...


CITY           SKY/WX    TMP DP  RH WIND       PRES   REMARKS
WATERLOO       CLEAR     34  32  92 CALM      29.55S FOG
DUBUQUE        CLOUDY    39  38  96 S6        29.56S FOG     WCI  35
DECORAH        CLOUDY    37  37 100 SW5       29.53  WCI  34
MASON CITY     CLOUDY    34  33  96 W8        29.55R WCI  27
CHARLES CITY   MOCLDY    36  36 100 CALM      29.54S
OELWEIN        PTCLDY    36  36 100 W3        29.55
$$

...ELSEWHERE IN IOWA...


CITY           SKY/WX    TMP DP  RH WIND       PRES   REMARKS
DES MOINES     PTCLDY    34  32  92 CALM      29.56R FOG
IOWA CITY      CLOUDY    36  34  92 S5        29.60R WCI  32
FORT DODGE     CLOUDY    34  30  86 CALM      29.57R
MARSHALLTOWN   CLEAR     35  34  96 SW5       29.55S FOG     WCI  31
CEDAR RAPIDS   CLEAR     35  34  96 S5        29.56S FOG     WCI  31
$$

...NORTHERN ILLINOIS...


CITY           SKY/WX    TMP DP  RH WIND       PRES   REMARKS
CHICAGO-OHARE  CLOUDY    41  40  96 NW3       29.58R FOG
CHICAGO-MIDWAY MOCLDY    46  40  79 W3        29.59R
MOLINE         CLOUDY    44  38  79 W5        29.59R
ROCKFORD       DRIZZLE   43  40  89 CALM      29.60S FOG
PEORIA         PTCLDY    41  41 100 CALM      29.60R FOG
$$

NOTE: "FAIR" INDICATES FEW OR NO CLOUDS BELOW 12,000 FEET WITH NO
SIGNIFICANT WEATHER AND/OR OBSTRUCTIONS TO VISIBILITY. WIND
SPEEDS ARE IN MILES-PER-HOUR.




USA.gov is the U.S. government's official web portal to all federal, state and local government web resources and services.